sat.trackr.live / text

‹ back to catalog

STARLINK-32894

NORAD 62969 · 2025-029X

PAYLOAD ACTIVE UNKNOWN

§ Identity

Operator
Country
US
Launch date
2025-02-11
Launch site
AFWTR
Launch vehicle
Mass (kg)
RCS (m²)

Purposes: comms

External: N2YO · Heavens-Above · Gunter

§ Orbital elements

Epoch: 2026-05-24T17:42:55.728000Z

Period
94.11 min
Inclination
53.1585°
Eccentricity
0.0001099
Mean motion
15.30200097 rev/d
Perigee alt
474.5 km
Apogee alt
476.0 km
Semi-major
6,853.4 km
B*
7.8522e-4
RAAN
239.0230°
Arg perigee
79.1614°
Mean anomaly
280.9511°
Rev number
7,296

§ Raw data

STARLINK-328941 62969U 25029X   26144.73814500  .00022969  00000+0  78522-3 0  99992 62969  53.1585 239.0230 0001099  79.1614 280.9511 15.30200097 72964

JSON: /api/v1/satellites/62969 · /tle

For live sub-satellite position, see the globe view (requires WebGL).

§ Visibility from observer

Set your observer location to see the next 7 days of passes ≥ 10°. The values pass through the URL so the page stays shareable.

No JS? Fill the form by hand. The geolocation button needs JavaScript.